Find Starlink 11625

NORAD ID: 63109 Int'l Des: 2025-039 Owner: SPXS Country: US Constellation: starlink operational
LEOCIRCULAR

实时位置

正在加载3D地球...

关于 Starlink 11625

正在加载描述...

即将过境

Passes for default location (London). Set your location on the main map for personalized predictions.

高度历史

Loading altitude history...

两行轨道根数

1 63109U 25039F 26124.64661279 .00234866 00000-0 17793-2 0 9992
2 63109 42.9993 259.7668 0000709 183.0422 177.0441 15.70883882 68419
Epoch: May 4, 2026 • Age: 18 hours

当前状态

高度 367.0 km
速度 7.69 km/s
星下点 -39.46°S, 133.08°E
发射日期 Feb 27, 2025
运行时间 1.1 years
类型 internet

技术详情

分类 Payload
质量 960.00 kg
干质量 910.00 kg
总质量 960.00 kg
长度 0.30 m
直径 4.10 m
跨度 29.00 m
形状 Box + pan
制造商 SPXS
平台类型 Starlink V2MD
阶段状态 In Orbit
所有者/国家 SPXS/US

Most Searched